Flag for India Weather past 2 weeks in Karaikudi, Tamil Nadu, India

Now
81 °F

Passing clouds.


Feels Like: 84 °F
Forecast: 77 / 92 °F
Wind: 12 mph from Northwest

Location: Tiruchchirapalli

Current Time: Sep 21, 2014 at 6:39:18 AM

Latest Report: Sep 21, 2014 at 6:10 AM


Visibility: 4 mi

Pressure: 29.74 "Hg

Humidity: 70%

Dew point: 70 °F

Location of KaraikudiLocation

Historic Weather in Karaikudi — Graph

°F

Karaikudi temperature yesterday

Maximum temperature yesterday: 100 °F (at 2:40 PM)
Minimum temperature yesterday: 81 °F (at 4:40 AM)
Average temperature yesterday: 90 °F

Past Weeks' High & Low Weather Summary

 TemperatureHumidityPressure
High102 °F (Sep 14, 2:40 PM)84% (Sep 14, 9:10 PM)29.86 "Hg (Sep 14, 9:10 PM)
Low79 °F (Sep 14, 9:10 PM)33% (Sep 16, 2:40 PM)29.59 "Hg (Sep 17, 3:10 PM)
Average89 °F53%29.75 "Hg
* Reported Sep 6 4:40 AM — Sep 21 5:10 AM, Karaikudi, Weather by CustomWeather, © 2014

Note: Actual official high and low records may vary slightly from our data, if they occured in-between our weather recording intervals... More about our weather records

Advertising

Karaikudi weather history for previous 24 hours

 ConditionsComfort  
Time TempWeatherWind HumidityBarometerVisibility
5:10 AM
Sep 21
82 °FPassing clouds.9 mph66%29.74 "Hg4 mi
4:40 AM82 °FPassing clouds.12 mph66%29.71 "Hg4 mi
4:10 AM82 °FPassing clouds.9 mph66%29.71 "Hg4 mi
3:40 AM82 °FPassing clouds.12 mph66%29.71 "Hg4 mi
3:10 AM82 °FPassing clouds.10 mph66%29.71 "Hg4 mi
2:40 AM82 °FPassing clouds.10 mph66%29.71 "Hg4 mi
1:40 AM84 °FPassing clouds.9 mph62%29.74 "Hg4 mi
1:10 AM84 °FPassing clouds.9 mph62%29.74 "Hg4 mi
12:40 AM84 °FPassing clouds.9 mph62%29.77 "Hg4 mi
12:10 AM86 °FPartly cloudy.6 mph59%29.77 "Hg4 mi
11:40 PM
Sep 20
86 °FPartly cloudy.7 mph59%29.77 "Hg4 mi
11:10 PM86 °FPartly cloudy.7 mph55%29.77 "Hg4 mi
6:40 PM93 °FPartly sunny.9 mph41%29.68 "Hg4 mi
6:10 PM93 °FPartly sunny.9 mph44%29.65 "Hg4 mi
5:40 PM95 °FPartly sunny.12 mph39%29.62 "Hg5 mi
5:10 PM95 °FPartly sunny.9 mph41%29.62 "Hg5 mi
4:40 PM97 °FScattered clouds.12 mph39%29.62 "Hg5 mi
4:10 PM99 °FPassing clouds.12 mph37%29.62 "Hg5 mi
3:40 PM100 °FPassing clouds.12 mph35%29.62 "Hg5 mi
3:10 PM100 °FPassing clouds.14 mph35%29.65 "Hg5 mi
2:40 PM100 °FPassing clouds.12 mph35%29.65 "Hg5 mi
2:10 PM99 °FPassing clouds.12 mph35%29.68 "Hg5 mi
1:40 PM99 °FPassing clouds.12 mph35%29.68 "Hg4 mi
1:10 PM97 °FPassing clouds.14 mph37%29.68 "Hg4 mi
12:40 PM97 °FScattered clouds.12 mph37%29.71 "Hg4 mi
12:10 PM97 °FScattered clouds.12 mph37%29.71 "Hg4 mi
11:40 AM95 °FScattered clouds.12 mph39%29.74 "Hg4 mi
11:10 AM95 °FScattered clouds.12 mph39%29.77 "Hg4 mi
10:40 AM93 °FScattered clouds.12 mph41%29.77 "Hg4 mi
10:10 AM91 °FScattered clouds.13 mph44%29.77 "Hg4 mi
9:40 AM90 °FScattered clouds.12 mph46%29.77 "Hg4 mi
9:10 AM88 °FPassing clouds.12 mph49%29.77 "Hg4 mi
8:40 AM86 °FHaze.12 mph55%29.77 "Hg3 mi
8:10 AM84 °FHaze.12 mph62%29.77 "Hg3 mi
7:40 AM84 °FHaze.13 mph58%29.77 "Hg3 mi
7:10 AM82 °FHaze.12 mph62%29.74 "Hg3 mi
6:10 AM81 °FPassing clouds.10 mph66%29.74 "Hg4 mi
Weather by CustomWeather, © 2014

See weather overviewHow to use our weather pages